Weather History for Dansville, NY

Change the Weather History Date:

Tuesday, April 9, 2013

  Actual Average Record
Temperature  
Mean Temperature 57 °F -  
Max Temperature 68 °F 51 °F 81 °F (1991)
Min Temperature 46 °F 30 °F 13 °F (1972)
Degree Days  
Heating Degree Days 8    
Growing Degree Days 7 (Base 50)    
Moisture  
Dew Point 44 °F    
Average Humidity 69    
Maximum Humidity 100    
Minimum Humidity 37    
Precipitation  
Precipitation 0.46 in - - ()
Sea Level Pressure  
Sea Level Pressure 30.00 in    
Wind  
Wind Speed 8 mph (NW)    
Max Wind Speed 21 mph    
Max Gust Speed 37 mph    
Visibility 9 miles    
Events Rain , Thunderstorm    
Averages and records for this station are not official NWS values.
T = Trace of Precipitation, MM = Missing Value Source: NWS Daily Summary

Daily Weather History Graph

Daily Weather History Graph

Search for Another Location

Airport:

Trip Planner

Search our weather history database for the weather conditions in past years. The results will help you decide how hot, cold, wet, or windy it might be!

Date:

Astronomy

Apr. 09, 2013 Rise Set
Actual Time 6:39 AM EDT 7:46 PM EDT
Civil Twilight 6:10 AM EDT 8:15 PM EDT
Nautical Twilight 5:35 AM EDT 8:49 PM EDT
Astronomical Twilight 4:59 AM EDT 9:26 PM EDT
Moon 6:01 AM EDT (4/9) 7:19 PM EDT (4/9)
Length of Visible Light 14h 04m
Length of Day
13h 07m
Waning Crescent, 1% of the Moon is Illuminated
Apr 9
Waning Crescent
Apr 10
New
Apr 18
First Quarter
Apr 25
Full
May 2
Last Quarter

Hourly Weather History & Observations

Time (EDT) Temp. Dew Point Humidity Pressure Visibility Wind Dir Wind Speed Gust Speed Precip Events Conditions
12:54 AM 68.0 °F 48.0 °F 49% 29.83 in 10.0 mi SSW 8.1 mph 17.3 mph N/A   Clear
1:54 AM 68.0 °F 48.0 °F 49% 29.83 in 10.0 mi Variable 6.9 mph - N/A   Clear
2:54 AM 63.0 °F 48.9 °F 60% 29.86 in 10.0 mi NNW 16.1 mph 23.0 mph N/A   Partly Cloudy
3:54 AM 57.0 °F 44.1 °F 62% 29.92 in 10.0 mi WNW 9.2 mph 16.1 mph N/A   Clear
4:54 AM 55.0 °F 44.1 °F 67% 29.96 in 10.0 mi NW 11.5 mph 23.0 mph N/A   Partly Cloudy
5:38 AM 53.6 °F 44.6 °F 72% 29.97 in 10.0 mi WNW 3.5 mph - N/A   Mostly Cloudy
5:54 AM 53.1 °F 44.1 °F 71% 30.01 in 10.0 mi NNW 8.1 mph - N/A   Overcast
6:54 AM 51.1 °F 42.1 °F 71% 30.06 in 10.0 mi NW 12.7 mph 21.9 mph N/A   Overcast
7:54 AM 48.0 °F 41.0 °F 77% 30.11 in 10.0 mi NNW 9.2 mph - N/A   Overcast
8:54 AM 48.0 °F 41.0 °F 77% 30.12 in 10.0 mi WNW 6.9 mph - N/A   Overcast
9:54 AM 48.9 °F 41.0 °F 74% 30.14 in 10.0 mi NW 8.1 mph - N/A   Overcast
10:54 AM 52.0 °F 42.1 °F 69% 30.15 in 10.0 mi NNW 3.5 mph - N/A   Overcast
11:54 AM 55.0 °F 42.1 °F 62% 30.13 in 10.0 mi Calm Calm - N/A   Scattered Clouds
12:54 PM 57.9 °F 42.1 °F 56% 30.08 in 10.0 mi Calm Calm - N/A   Clear
1:54 PM 61.0 °F 43.0 °F 52% 30.06 in 10.0 mi Calm Calm - N/A   Clear
2:54 PM 66.0 °F 41.0 °F 40% 30.03 in 10.0 mi Calm Calm - N/A   Clear
3:54 PM 66.9 °F 42.1 °F 40% 30.01 in 10.0 mi NW 8.1 mph - N/A   Clear
4:54 PM 68.0 °F 41.0 °F 37% 29.99 in 10.0 mi NW 5.8 mph - N/A   Partly Cloudy
5:54 PM 66.9 °F 42.1 °F 40% 29.98 in 10.0 mi NW 8.1 mph - 0.00 in Rain Light Rain
6:54 PM 64.0 °F 42.1 °F 45% 29.97 in 10.0 mi NW 9.2 mph - 0.00 in   Overcast
7:54 PM 57.9 °F 46.0 °F 65% 30.00 in 10.0 mi NW 13.8 mph - 0.00 in Rain Light Rain
8:54 PM 50.0 °F 46.0 °F 86% 29.99 in 10.0 mi Calm Calm - 0.01 in   Mostly Cloudy
9:54 PM 48.0 °F 45.0 °F 89% 29.95 in 10.0 mi Calm Calm - 0.00 in   Overcast
10:31 PM 48.2 °F 46.4 °F 93% 29.95 in 4.0 mi North 9.2 mph 23.0 mph 0.05 in Rain , Thunderstorm Heavy Rain
10:44 PM 48.2 °F 46.4 °F 93% 30.00 in 2.5 mi NNW 20.7 mph 36.8 mph 0.13 in Rain , Thunderstorm Heavy Rain
10:54 PM 46.9 °F 46.0 °F 97% 30.03 in 2.0 mi WNW 10.4 mph 26.5 mph 0.24 in Rain , Thunderstorm Heavy Rain
11:02 PM 48.2 °F 46.4 °F 93% 30.01 in 2.5 mi NNW 4.6 mph 16.1 mph 0.04 in Rain , Thunderstorm Heavy Rain
11:21 PM 48.2 °F 46.4 °F 93% 29.96 in 4.0 mi SSE 13.8 mph - 0.14 in Rain , Thunderstorm Heavy Rain
11:44 PM 48.2 °F 48.2 °F 100% 29.92 in 8.0 mi South 11.5 mph - 0.20 in Rain Rain
11:54 PM 50.0 °F 48.0 °F 93% 29.96 in 9.0 mi South 9.2 mph - 0.21 in Rain Light Rain